Regional Weather Roundup
Issued by NWS

Home | Current Version | Previous Version | Graphics & Text | Print | Product List | Glossary On
Versions: 1 2 3 4 5 6 7 8 9 10 11 12 13 14 15 16 17 18 19 20 21 22 23 24 25 26 27 28 29 30 31 32 33 34 35 36 37 38 39 40 41 42 43 44 45 46 47 48 49 50
000
ASUS43 KOAX 270310
RWRNE

WEATHER ROUNDUP FOR NEBRASKA
NATIONAL WEATHER SERVICE OMAHA NE
1000 PM CDT TUE MAY 26 2015

NOTES: SATELLITE DATA IS BEING USED TO AUGMENT CLOUD COVER ABOVE
       12000 FEET.
       "FAIR" INDICATES FEW OR NO CLOUDS BELOW 12,000 FEET WITH NO
       SIGNIFICANT WEATHER AND/OR OBSTRUCTIONS TO VISIBILITY.

  * THESE STATIONS DO NOT REPORT WEATHER SUCH AS RAIN...SNOW OR FOG.

NEZ001>004-019>022-054>056-270400-
NEBRASKA PANHANDLE

CITY           SKY/WX    TMP DP  RH WIND       PRES   REMARKS
SCOTTSBLUFF    PTCLDY    60  52  74 MISG      30.00R
ALLIANCE       PTCLDY    54  49  83 SE8       30.01R
CHADRON        CLOUDY    59  52  77 S7        29.98R
KIMBALL          N/A    N/A N/A N/A MISG        N/A
SIDNEY         MOCLDY    55  51  86 SE7       30.04R
$$

NEZ057>060-069>072-079>082-270400-
SOUTHWEST NEBRASKA

CITY           SKY/WX    TMP DP  RH WIND       PRES   REMARKS
NORTH PLATTE   CLEAR     57  51  80 CALM      30.01R
IMPERIAL       PTCLDY    59  51  75 E7        30.02R
LEXINGTON      CLEAR     61  50  67 CALM      30.01R
MCCOOK         CLEAR     63  49  60 SE6       30.01R
OGALLALA       PTCLDY    60  51  73 SE5       30.02R
$$

NEZ005>010-023>029-035>040-094-270400-
NORTH CENTRAL NEBRASKA

CITY           SKY/WX    TMP DP  RH WIND       PRES   REMARKS
VALENTINE      CLEAR     60  50  69 W3        29.98R
AINSWORTH      CLEAR     63  52  67 CALM      29.98R
BROKEN BOW     CLEAR     57  51  80 CALM      29.99R
O`NEILL        CLEAR     60  54  79 W3        29.95R
ORD            CLEAR     59  48  67 W9        29.95R
THEDFORD       CLEAR     59  48  67 CALM      30.01R
$$

NEZ041-046>049-061>064-073>077-083>087-270400-
SOUTH CENTRAL NEBRASKA

CITY           SKY/WX    TMP DP  RH WIND       PRES   REMARKS
GRAND ISLAND   PTCLDY    58  49  72 W7        29.97R
AURORA         PTCLDY    56  49  75 W7        29.96R
HASTINGS       CLEAR     60  51  72 W5        29.97R
HEBRON         PTCLDY    59  51  73 W3        29.96R
HOLDREGE       CLEAR     58  49  70 CALM      30.00R
KEARNEY *      CLEAR     64  46  52 W5        29.99R
YORK           CLEAR     59  54  82 W5        29.94R
$$

NEZ011>018-030>034-042>045-270400-
NORTHEAST NEBRASKA

CITY           SKY/WX    TMP DP  RH WIND       PRES   REMARKS
NORFOLK        CLEAR     56  51  84 SW7       29.91R
ALBION         CLEAR     59  50  73 CALM      29.94R
BLAIR          CLEAR     62  55  77 SW5       29.88R
COLUMBUS *       N/A    N/A N/A N/A MISG        N/A
FREMONT        CLEAR     61  55  80 W5        29.90R
TEKAMAH        CLEAR     61  55  81 N3        29.89R
WAYNE          PTCLDY    58  53  83 CALM      29.90R
$$

NEZ050>053-065>068-078-088>093-270400-
SOUTHEAST NEBRASKA

CITY           SKY/WX    TMP DP  RH WIND       PRES   REMARKS
LINCOLN        CLEAR     64  55  72 W5        29.92R
OMAHA EPPLEY   MOCLDY    61  56  83 CALM      29.87R
BEATRICE       CLEAR     61  55  80 W5        29.93R
FALLS CITY     PTCLDY    63  58  83 W6        29.91R
NEBRASKA CITY  CLEAR     61  55  81 W6        29.92R
PLATTSMOUTH    CLEAR     62  54  75 SW6       29.90R
$$

NEZ044-045-051>053-067-270400-
OMAHA AREA

CITY           SKY/WX    TMP DP  RH WIND       PRES   REMARKS
OMAHA EPPLEY   MOCLDY    61  56  83 CALM      29.87R
BLAIR          CLEAR     62  55  77 SW5       29.88R
FREMONT        CLEAR     61  55  80 W5        29.90R
MILLARD        CLEAR     61  56  85 W3        29.88S
OFFUTT AFB     CLEAR     64  56  77 SW7       29.88R
PLATTSMOUTH    CLEAR     62  54  75 SW6       29.90R
WAHOO          FAIR      61  56  82 W6        29.90R
$$


USA.gov is the U.S. government's official web portal to all federal, state and local government web resources and services.